Weather History for EINN - November, 2010

Change the Weather History Date:

Tuesday, November 16, 2010

  Actual Average Record
Temperature  
Mean Temperature 44 °F -  
Max Temperature 50 °F 49 °F 60 °F (1997)
Min Temperature 39 °F 39 °F 33 °F (2002)
Degree Days  
Heating Degree Days 20    
Moisture  
Dew Point 43 °F    
Average Humidity 88    
Maximum Humidity 100    
Minimum Humidity 75    
Precipitation  
Precipitation 0.02 in 0.13 in - ()
Sea Level Pressure  
Sea Level Pressure 29.73 in    
Wind  
Wind Speed 14 mph ()    
Max Wind Speed 33 mph    
Max Gust Speed 55 mph    
Visibility 6.5 miles    
Events Rain    
Averages and records for this station are not official NWS values.
T = Trace of Precipitation, MM = Missing Value Source: Averaged Metar Reports

Daily Weather History Graph

Daily Weather History Graph

Search for Another Location

Airport or City:

Trip Planner

Search our weather history database for the weather conditions in past years. The results will help you decide how hot, cold, wet, or windy it might be!

Date:

Astronomy

Nov. 16, 2010 Rise Set
Actual Time 7:59 AM GMT 4:40 PM GMT
Civil Twilight 7:21 AM GMT 5:18 PM GMT
Nautical Twilight 6:39 AM GMT 6:00 PM GMT
Astronomical Twilight 5:58 AM GMT 6:41 PM GMT
Moon 2:14 PM GMT (11/16) 2:11 AM GMT (11/16)
Length of Visible Light 9h 57m
Length of Day
8h 40m
Waxing Gibbous, 75% of the Moon is Illuminated
Nov 16
Waxing Gibbous
Nov 21
Full
Nov 28
Last Quarter
Dec 5
New
Dec 13
First Quarter

Hourly Weather History & Observations

Time (GMT) Temp. Windchill Dew Point Humidity Pressure Visibility Wind Dir Wind Speed Gust Speed Precip Events Conditions
12:00 AM 40 °F - 37 °F 87% 30.05 in 12 mi SE 11.2 mph - -   Scattered Clouds
12:00 AM 39.2 °F 32.5 °F 37.4 °F 93% 30.04 in 6.2 mi SE 10.4 mph - N/A   Mostly Cloudy
12:30 AM 39.2 °F 33.0 °F 37.4 °F 93% 30.04 in 6.2 mi SE 9.2 mph - N/A   Scattered Clouds
1:00 AM 39.2 °F 32.5 °F 37.4 °F 93% 30.04 in 6.2 mi SE 10.4 mph - N/A   Mostly Cloudy
1:30 AM 39.2 °F 33.0 °F 37.4 °F 93% 30.04 in 6.2 mi ESE 9.2 mph - N/A   Scattered Clouds
2:00 AM 39.2 °F 33.6 °F 37.4 °F 93% 30.01 in 6.2 mi ESE 8.1 mph - N/A   Scattered Clouds
2:30 AM 39.2 °F 33.0 °F 37.4 °F 93% 30.01 in 6.2 mi ESE 9.2 mph - N/A   Partly Cloudy
3:00 AM 39.2 °F 33.0 °F 37.4 °F 93% 30.01 in 6.2 mi ESE 9.2 mph - N/A   Partly Cloudy
3:30 AM 39.2 °F 32.5 °F 37.4 °F 93% 30.01 in 6.2 mi ESE 10.4 mph - N/A   Mostly Cloudy
4:00 AM 41.0 °F 34.3 °F 37.4 °F 87% 30.01 in 6.2 mi ESE 11.5 mph - N/A   Mostly Cloudy
4:30 AM 41.0 °F 33.9 °F 39.2 °F 93% 29.98 in 6.2 mi ESE 12.7 mph - N/A   Mostly Cloudy
5:00 AM 41.0 °F 34.3 °F 37.4 °F 87% 29.98 in 6.2 mi ESE 11.5 mph - N/A   Mostly Cloudy
5:30 AM 41.0 °F 33.9 °F 39.2 °F 93% 29.98 in 6.2 mi ESE 12.7 mph - N/A   Mostly Cloudy
6:00 AM 42 °F - 40 °F 88% 29.98 in 12 mi ESE 11.2 mph - -   Scattered Clouds
6:00 AM 42.8 °F 37.0 °F 39.2 °F 87% 29.98 in 6.2 mi ESE 10.4 mph - N/A   Scattered Clouds
6:30 AM 42.8 °F 36.6 °F 39.2 °F 87% 29.98 in 6.2 mi ESE 11.5 mph - N/A   Scattered Clouds
7:00 AM 41.0 °F 35.2 °F 39.2 °F 93% 29.95 in 6.2 mi ESE 9.2 mph - N/A   Scattered Clouds
7:30 AM 41.0 °F 34.7 °F 39.2 °F 93% 29.95 in 6.2 mi ESE 10.4 mph - N/A   Partly Cloudy
8:00 AM 42.8 °F 38.0 °F 39.2 °F 87% 29.95 in 6.2 mi East 8.1 mph - N/A   Partly Cloudy
8:30 AM 42.8 °F 37.0 °F 41.0 °F 93% 29.95 in 6.2 mi ESE 10.4 mph - N/A   Scattered Clouds
9:00 AM 44.6 °F 38.8 °F 42.8 °F 93% 29.92 in 6.2 mi ESE 11.5 mph - N/A   Scattered Clouds
9:30 AM 44.6 °F 38.4 °F 41.0 °F 87% 29.92 in 6.2 mi ESE 12.7 mph - N/A   Mostly Cloudy
10:00 AM 46.4 °F 41.1 °F 42.8 °F 87% 29.92 in 6.2 mi ESE 11.5 mph - N/A   Mostly Cloudy
10:30 AM 48.2 °F - 44.6 °F 87% 29.89 in 6.2 mi ESE 10.4 mph - N/A   Mostly Cloudy
11:00 AM 48.2 °F - 44.6 °F 87% 29.89 in 6.2 mi SE 13.8 mph - N/A   Mostly Cloudy
11:30 AM 48.2 °F - 44.6 °F 87% 29.86 in 6.2 mi ESE 12.7 mph - N/A   Mostly Cloudy
12:00 PM 50 °F - 45 °F 75% 29.84 in 19 mi SE 15.7 mph - -   Scattered Clouds
12:00 PM 50.0 °F - 44.6 °F 82% 29.83 in 6.2 mi SE 16.1 mph - N/A   Mostly Cloudy
12:30 PM 50.0 °F - 44.6 °F 82% 29.77 in 6.2 mi SE 16.1 mph - N/A   Mostly Cloudy
1:00 PM 50.0 °F - 44.6 °F 82% 29.74 in 6.2 mi SE 18.4 mph - N/A   Mostly Cloudy
1:30 PM 50.0 °F - 44.6 °F 82% 29.74 in 6.2 mi SE 18.4 mph - N/A   Mostly Cloudy
2:00 PM 50.0 °F - 44.6 °F 82% 29.71 in 6.2 mi SE 19.6 mph - N/A   Mostly Cloudy
2:30 PM 50.0 °F - 44.6 °F 82% 29.68 in 6.2 mi SE 20.7 mph - N/A   Mostly Cloudy
3:00 PM 50.0 °F - 44.6 °F 82% 29.65 in 6.2 mi SE 21.9 mph - N/A   Mostly Cloudy
3:30 PM 50.0 °F - 44.6 °F 82% 29.62 in 6.2 mi SE 24.2 mph - N/A   Mostly Cloudy
4:00 PM 50.0 °F - 44.6 °F 82% 29.56 in 6.2 mi SE 24.2 mph - N/A Rain Light Rain
4:30 PM 50.0 °F - 46.4 °F 87% 29.53 in 6.2 mi SE 25.3 mph - N/A Rain Light Rain
5:00 PM 50.0 °F - 46.4 °F 87% 29.50 in 6.2 mi SE 26.5 mph - N/A Rain Light Rain
5:30 PM 50.0 °F - 46.4 °F 87% 29.47 in 6.2 mi SE 27.6 mph 40.3 mph N/A Rain Light Rain
6:00 PM 49 °F - 46 °F 84% 29.47 in 5 mi SE 31.3 mph - - Rain Light Rain
6:00 PM 48.2 °F - 46.4 °F 93% 29.44 in 5.0 mi SE 31.1 mph - N/A Rain Light Rain
6:30 PM 50.0 °F - 44.6 °F 82% 29.42 in 6.2 mi SE 31.1 mph 42.6 mph N/A Rain Light Rain
7:00 PM 50.0 °F - 44.6 °F 82% 29.42 in 6.2 mi SE 31.1 mph 46.0 mph N/A Rain Light Rain
7:30 PM 50.0 °F - 46.4 °F 87% 29.36 in 6.2 mi SE 31.1 mph - N/A Rain Light Rain
8:00 PM 50.0 °F - 46.4 °F 87% 29.33 in 6.2 mi ESE 31.1 mph 44.9 mph N/A Rain Light Rain
8:30 PM 50.0 °F - 46.4 °F 87% 29.30 in 6.2 mi SE 33.4 mph 55.2 mph N/A Rain Light Rain
9:00 PM 50.0 °F - 46.4 °F 87% 29.27 in 6.2 mi ESE 29.9 mph 47.2 mph N/A Rain Light Rain
9:30 PM 50.0 °F - 46.4 °F 87% 29.24 in 5.6 mi SE 31.1 mph 43.7 mph N/A Rain Light Rain
10:00 PM 50.0 °F - 48.2 °F 94% 29.24 in 5.0 mi SE 31.1 mph 46.0 mph N/A Rain Light Rain
10:30 PM 50.0 °F - 48.2 °F 94% 29.24 in 3.7 mi SE 28.8 mph 40.3 mph N/A Rain Light Rain
11:00 PM 50.0 °F - 50.0 °F 100% 29.24 in 5.6 mi SSE 21.9 mph - N/A Rain Light Rain
11:30 PM 50.0 °F - 48.2 °F 94% 29.24 in 6.2 mi SSE 12.7 mph - N/A Rain Light Rain